Погода в Алате

Погода в Алате : погода сейчас, прогноз погоды и архив. Всё, что Вы хотите узнать о погоде в Алате!

Поиск расширенной информации на нашем сайте:

Полезная информация: Низкая стоимость, фундамент отзывы. Отзывы, лучший фундамент.

Другие новости

Новости СМИ2

Главная страница сайта

Новости сайта

03.07.2017

Напоминаем, что на нашем специализированном сайте Метеоцентр.Азия вы можете получить высокодетализированные автоматические прогнозы погоды по пунктам России, СНГ и мира в авиационном формате (включающие направление и скорость ветра, видимость, явления погоды, количество и форму облачности, нижнюю и верхнюю границу облачности).

Рекомендуем: Подробности разливной лимонад оптом на нашем сайте.

Погода в Алате - сегодня

Время (UTC), дата Ветер
(°,м/с) 
Видим.   Явления Облачность Т
(°С)
Тd
(°С)
f(%) Тe
(°С)
Pmin
(гПа)
dP
(гПа)
Po
(мм)
O2
(г/м3)
Тmin Tmax R s Состояние
почвы
00 07.05.17 тихо ()   4000 м    3/0 средняя 
[Ac trans]
+13.9 +10.6 80 +16  1011.4  -1.6  760  289           
03 07.05.17 180 (Ю) 10 км    8/0 верхняя 
[Ci fib]
+16.9 +12 73 +22  1011.7  0.3  760  286           
06 07.05.17 150 (ЮВ) 10 км    ясно 
+23.4 +13.6 54 +29  1011  -0.7  760  279           
12 27.05.17 110 (В) 10 км    ясно 
+21.8 +15.7 68 +31  1010.3  -2  759  280           
18 02.06.17 070 (В) 4000 м    ясно 
+20.7 +16.2 75 +31  1012.1  1.7  761  281    +25.3       
06 05.06.17 360 (С) 10 км    3/0 средняя 
[Ac trans]
+25.5 +11 40 +28  1019.7  0.3  766  280           
12 05.06.17 050 (СВ) 10 км    ясно 
+26.4 +13.1 44 +31  1019  -0.4  766  279           
09 06.07.17 360 (С) 14-16{18}  10 км    5/5 600 м 
[Cu med, cong]
+30.7 +17.6 46 +44    -0.9  761  272           
15 16.07.17 020 (С) 10 км    ясно 
+27.9 +20.8 65 +48  1012.4  0.4  761  273           
15 24.07.17 340 (С) 10 км    6/0 средняя 
[Ac und]
+27.9 +15.8 48 +38  1007.5  -0.2  757  273           
12 26.07.17 360 (С) 10 км    ясно 
+33.6 +15.6 34 +43  1004.6  -0.8  755  268           
00 02.08.17 340 (С) 4000 м    ясно 
+25.3 +18.6 66 +40  1017  764  278           
09 18.08.17 020 (С) 10 км    ясно 
+32.3 +18.1 43 +46  1010.6  -0.3  759  270           
12 20.08.17 020 (С) 10 км    ясно 
+29.7 +21.8 63 +52  1013.8  -0.5  762  271           
15 23.08.17 тихо ()   4000 м  дымка  ясно 
+28.5 +19.6 59 +46  1008.5  -0.8  758  272           
06 24.08.17 320 (СЗ) 10  10 км    ясно 
+30 +17.7 48 +43  1014.9  1.3  763  273           
09 24.08.17 340 (С) 10 км    ясно 
+32.8 +16.4 37 +44  1015  763  271           
06 28.08.17 220 (ЮЗ) 10 км    5/0 средняя 
[Ac trans]
+28.4 +19.3 58 +45  1012.4  -0.4  761  273           
09 28.08.17 080 (В) 10 км    3/0 средняя 
[Ac trans]
+29.1 +20.7 61 +49  1010.3  -2.2  759  271           
15 28.08.17 100 (В) 10 км    6/0 средняя 
[Ac und]
+27.2 +21.9 73 +50  1007.6  -0.7  757  272           
18 28.08.17 130 (ЮВ) 4000 м    ясно 
+26.3 +21.5 75 +48  1008.3  0.5  758  273    +31       
09 01.09.17 340 (С) 10 км    ясно 
+32.4 +19.9 48 +50  1011.5  0.1  760  269           
18 01.09.17 340 (С) 4000 м    ясно 
+24.2 +19.5 75 +41  1010.7  0.7  759  276    +33       
03 02.09.17 320 (СЗ) 10 км    4/4 600 м средняя 
[Cu med, cong|Ac trans]
+23.5 +15.8 62 +33  1010.2  0.9  759  278           
06 05.09.17 090 (В) 10 км    ясно 
+30.1 +17.1 46 +42  1014.7  0.7  762  273           
Время (UTC), дата Ветер
(°,м/с) 
Видим.   Явления Облачность Т
(°С)
Тd
(°С)
f(%) Тe
(°С)
Pmin
(гПа)
dP
(гПа)
Po
(мм)
O2
(г/м3)
Тmin Tmax R s Состояние
почвы

Для получения пояснительной информации подведите курсор к названию столбца.

ПОГОДА в Алате - архив

Всё, что Вы хотите узнать о погоде в Алате - удобно и подробно!

Выберите нужную дату (начиная с 1 января 2015* года) и нажмите кнопку "Найти".
Будут отображены архивные сводки погоды по пункту Алат, начиная с указанной даты.


Отображать данные в формате CSV (для использования в таблицах Excel)


Внимание! Наш архив погоды предназначен исключительно для личного некоммерческого использования в познавательных целях. Если Вам необходимы официальные справки о состоянии погоды (для производственных, юридических, коммерческих и т.п. целей), обращайтесь в органы Росгидромета.

*Примечание: данная дата относится к архиву по метеостанциям СССР (Россия, СНГ, Балтия).
Архив по метеостанциям Зарубежной Европы и Азии (кроме Китая) хранится 10 дней, по другим регионам земного шара (Китай, Африка, Америка, Австралия, Океания) - 1 день.

Алат - район местоположения метеостанции


Название, широта, долгота, высота метеостанции:
Алат 40°ш. 49.4°д. -16 м над ур. моря [Азербайджан]

Дополнительная информация

В oтличие oт бoльшинства пoгoдных сайтoв мы публикуем пoдрoбную метеoинфoрмацию в детальнoм прoфессиoнальнoм фoрмате.

Характеристики температуры и влажнoсти вoздуха измеряются на высoте 2 м в тени вдали oт зданий и деревьев.
Скoрoсть ветра измеряется на высoте 10 м (на урoвне рoста челoвека скoрoсть ветра ниже в 1.5-2 раза). Если метеoстанция нахoдится в гoрoде или в лесу, тo скoрoсть ветра занижена на 2-4 м/с пo сравнению с oткрытым местoм. Скoрoсть ветра над акватoриями крупных рек и oзёр, а также на вершинах хoлмoв на 2-5 м/с выше, чем в oбычных услoвиях.
Атмoсфернoе давление в разных тoчках местнoсти мoжет значительнo oтличаться oт давления на метеoстанции, в зависимoсти oт услoвий рельефа (при пoдъёме на 10 м давление пoнижается примернo на 1 мм рт.ст.).